Regional Weather Roundup
Issued by NWS Upton, NY

Current Version | Previous Version | Graphics & Text | Print | Product List | Glossary Off
Versions: 1 2 3 4 5 6 7 8 9 10 11 12 13 14 15 16 17 18 19 20 21 22 23 24 25 26 27 28 29 30 31 32 33 34 35 36 37 38 39 40 41 42 43 44 45 46 47 48 49 50

736
ASUS41 KOKX 040408
RWROKX

REGIONAL WEATHER ROUNDUP
NATIONAL WEATHER SERVICE NEW YORK NY
1100 PM EST SAT DEC 03 2016

NOTE: "FAIR" INDICATES FEW OR NO CLOUDS BELOW 12,000 FEET WITH NO
SIGNIFICANT WEATHER AND/OR OBSTRUCTIONS TO VISIBILITY.

NYZ071-072-176-178-NJZ106-104-040500-
NEW YORK CITY METRO AREA

CITY           SKY/WX    TMP DP  RH WIND       PRES   REMARKS
Central Park   CLOUDY    43  25  49 VRB7      30.17R
Wall St Helipt CLOUDY    45  29  53 CALM      30.17R
Bronx Bot Gard NOT AVBL
LaGuardia APRT MOCLDY    45  28  51 NW21G29   30.14R
Kennedy INTL   MOCLDY    44  25  47 NW13G25   30.16R
Breezy Point     N/A     43 N/A N/A NW17G25     N/A
Newark/Liberty CLOUDY    43  27  53 NW18      30.16R
Teterboro      CLOUDY    43  24  47 NW10      30.15R
$$

NYZ177-179-078>081-040500-
LONG ISLAND NEW YORK

CITY           SKY/WX    TMP DP  RH WIND       PRES   REMARKS
Jones Beach      N/A     43 N/A N/A NW16G22     N/A
Matinecock PT  NOT AVBL
Farmingdale    CLOUDY    42  28  57 NW6       30.13R
MacArthur/ISP  MOCLDY    41  28  60 N5        30.13R
Shirley        CLOUDY    40  28  62 NW14G20   30.14R WCI  32
Westhampton    CLOUDY    41  25  53 NW15G21   30.14R
Southampton    NOT AVBL
Bridgehampton  NOT AVBL
East Hampton   CLOUDY    39  23  52 N9G20     30.11R WCI  33
Montauk          N/A     40  25  55 NW20G29   30.11R WCI  30
$$

NYZ052-065-067-040500-
HUDSON VALLEY

CITY           SKY/WX    TMP DP  RH WIND       PRES   REMARKS
White Plains   MOCLDY    41  26  55 NW12      30.11R
Newburgh       CLOUDY    39  28  65 NW9       30.14R WCI  33
Montgomery     CLOUDY    40  26  57 NW9       30.13R WCI  34
Poughkeepsie   CLOUDY    37  27  67 NE5       30.14R WCI  33
Albany         CLOUDY    36  23  59 NW9       30.14R WCI  29
$$

NJZ001-105-106-008-010-013-015-019>022-104-040500-
NEW JERSEY

CITY           SKY/WX    TMP DP  RH WIND       PRES   REMARKS
Newark/Liberty CLOUDY    43  27  53 NW18      30.16R
Teterboro      CLOUDY    43  24  47 NW10      30.15R
Caldwell       CLOUDY    42  24  49 NW12G20   30.17R
Somerville     CLOUDY    44  26  49 NW10      30.16R
Linden         CLOUDY    43  25  48 NW10G21   30.17R
Sussex         CLOUDY    40  25  55 NW9G20    30.15S WCI  34
Andover          N/A     39  26  59 N9        30.15R WCI  33
Trenton        CLOUDY    44  26  49 NW7       30.18R
Millville      CLOUDY    45  32  60 NW12      30.20R
Atlantic City  CLOUDY    45  30  55 W7        30.19R
Wrightstown    NOT AVBL
Toms River     CLOUDY    44  27  51 NW8       30.18R
Belmar         CLOUDY    43  27  53 NW14      30.17R
$$

PAZ047>061-062-071-040500-
EASTERN PENNSYLVANIA

CITY           SKY/WX    TMP DP  RH WIND       PRES   REMARKS
Philadelphia   CLOUDY    47  29  49 NW12G21   30.20R
Allentown      CLOUDY    43  24  47 NW13      30.18R
Scranton       CLOUDY    38  25  59 N18G25    30.17R WCI  28
$$

CTZ002-004>006-009-010-012-RIZ004-006-007-MAZ004-011-015-040500-
SOUTHERN NEW ENGLAND
 IN CT

CITY           SKY/WX    TMP DP  RH WIND       PRES   REMARKS
Bradley INTL   PTCLDY    35  19  52 N5        30.10R WCI  31
Hartford       PTCLDY    37  20  50 NW8       30.12R WCI  31
Danbury        NOT AVBL
Wtrbury/Oxford CLOUDY    37  21  52 NW15G22   30.12R WCI  28
Bridgeport     CLOUDY    42  27  55 NW6       30.14R
Meriden        MOCLDY    40  22  48 N9G22     30.13R WCI  34
New Haven      CLOUDY    40  24  53 NW14G23   30.13R WCI  32
Chester        CLOUDY    37  23  56 NW12      30.10R WCI  30
Groton         CLOUDY    41  25  53 NW10      30.10R
Wilimantic     CLEAR     38  21  50 NW6       30.10R WCI  33

 IN RI

CITY           SKY/WX    TMP DP  RH WIND       PRES   REMARKS
Providence     CLEAR     35  22  58 NW6       30.06R WCI  30
Block Island   PTCLDY    38  26  62 NW15G23   30.08R WCI  29
Westerly       CLEAR     36  23  59 CALM      30.09R
 IN MA

CITY           SKY/WX    TMP DP  RH WIND       PRES   REMARKS
Boston         PTCLDY    36  24  62 NW13      30.04S WCI  27
Worcester      CLEAR     31  20  63 N10G21    30.02S WCI  22
Westfield      PTCLDY    33  21  61 N10       30.09R WCI  25
Provincetown   PTCLDY    39  27  62 NW21G31   30.01S WCI  29
Nantucket      CLEAR     39  25  57 NW22G30   30.00R WCI  29
$$

ANZ330-335-338-340-345-350-353-355-040500-
COASTAL MARINE OBSERVATIONS


STATION/POSITION TIME  SKY/WX   TEMP    WIND        PRES    VSBY  WAVE
                                AIR SEA DIR/SP/G                  HT/PER
                 (UTC)          (F)     (DEG/KT/KT) (MB)    (MI)  (FT/S)
NY HARB ENTRANCE 0350            46 55  310/ 23/ 29 1020.1          4/ 4
20 S FIRE ISLAND 0250            45 53  330/ 23/ 29 1019.3          5/ 5
GREAT SOUTH BAY  0330            42 44                N/A
23 SSW MONTAUK P 0350            43 55  310/ 25/ 31 1019.0          6/ 5
15 E BARNEGAT LI 0330               54                N/A           4/ 5
HUDSON CANYON    0250            49 58              1018.6         10/ 7
KINGS POINT      0336            43 48              1020.5
EXECUTION ROCKS  0345            44     300/ 14/ 19   N/A
CENTRAL LI SOUND 0315            42 51  340/ 19/ 27   N/A           2/ 4
EASTERN LI SOUND NOT AVBL
ROBBINS REEF     0336            43     330/ 16/ 21 1021.1
$$


>>>>>>>>>>>>>>>>>>>>>>>>>>>> KEY <<<<<<<<<<<<<<<<<<<<<<<<<<<
>                                                          <
>     SKY/WX - Sky Condition/Present Weather               <
>     TMP    - Temperature in Fahrenheit                   <
>     DP     - Dew Point in Fahrenheit                     <
>     RH     - Relative Humidity in Percent                <
>     WIND   - Direction (from) and Speed in MPH           <
>     PRES   - Mean Sea Level Pressure (inches of Hg)      <
>     WCI    - Wind Chill Index                            <
>     VSB    - VISIBILITY IN MILES                         <
>     HX     - HEAT INDEX                                  <
>     TC     - TEMPERATURE IN CELSIUS                      <
>     VRB    - VARIABLE WIND DIRECTION                     <
>                                                          <
>>>>>>>>>>>>>>>>>>>>>>>>>>>> KEY <<<<<<<<<<<<<<<<<<<<<<<<<<<




USA.gov is the U.S. government's official web portal to all federal, state and local government web resources and services.